Regional Weather Roundup
Issued by NWS Charleston, SC

Current Version | Previous Version | Graphics & Text | Print | Product List | Glossary On
Versions: 1 2 3 4 5 6 7 8 9 10 11 12 13 14 15 16 17 18 19 20 21 22 23 24 25 26 27 28 29 30 31 32 33 34 35 36 37 38 39 40 41 42 43 44 45 46 47 48 49 50
000 ASUS42 KCHS 162027 RWRCHS REGIONAL WEATHER ROUNDUP NATIONAL WEATHER SERVICE CHARLESTON SC 400 PM EDT WED AUG 16 2017 NOTE: "FAIR" INDICATES FEW OR NO CLOUDS BELOW 12,000 FEET WITH NO SIGNIFICANT WEATHER AND/OR OBSTRUCTIONS TO VISIBILITY. NOT ALL STATIONS ARE QUALITY CONTROLLED. USE DATA WITH CAUTION... ESPECIALLY DEWPOINT OBSERVATIONS. SCZ027-030-031-034>040-042>050-162100- ...SOUTHEAST SOUTH CAROLINA... CITY SKY/WX TMP DP RH WIND PRES REMARKS N CHARLESTON MOSUNNY 94 74 52 W7 29.98F HX 104 WATERFRONT PRK N/A N/A N/A N/A SW7 29.83F JOHNS ISLAND FAIR 91 82 75 S9G16 29.98S HX 114 PINOPOLIS N/A 91 79 66 CALM 29.91F HX 107 MONCKS CORNER FAIR 93 73 52 NW3 29.97F HX 102 SUMMERVILLE MOCLDY 95 73 49 W5 29.99S HX 105 BEAUFORT MCAS MOSUNNY 95 77 55 W6 29.99F HX 109 BEAUFORT ARPT MOCLDY 91 79 66 S10 29.98F HX 107 HILTON HEAD IS MOSUNNY 86 81 84 S9 30.01S HX 102 WALTERBORO PTCLDY 95 73 49 CALM 29.99F HX 105 ALLENDALE NOT AVBL ...SOUTHERN MIDLANDS AND PEE DEE... CITY SKY/WX TMP DP RH WIND PRES REMARKS GEORGETOWN CLOUDY 86 79 79 SE9 29.98F HX 99 KINGSTREE FAIR 86 73 66 S6 29.98S HX 93 ORANGEBURG MOSUNNY 95 72 47 W10 29.98F HX 103 BARNWELL FAIR 97 73 46 W7 29.99S HX 107 AIKEN MOCLDY 91 72 52 W3 30.03F HX 98 MANNING HVY RAIN 84 79 84 CALM 29.99R HX 96 COLUMBIA MOSUNNY 97 69 40 VRB5 29.97F HX 103 SUMTER MOSUNNY 93 71 49 S6 29.96F HX 100 FLORENCE MOSUNNY 92 74 55 SE7 29.98F HX 101 MYRTLE BEACH PTSUNNY 90 79 70 S10 29.99F HX 105 N MYRTLE BEACH MOSUNNY 87 77 72 S12 29.98F HX 99 $$ GAZ063-065-086>088-099>101-113>116-118-119-134>141-150-162100- ...SOUTHEAST GEORGIA... CITY SKY/WX TMP DP RH WIND PRES REMARKS SAVANNAH ARPT PTSUNNY 97 73 45 SW7 29.99F HX 107 HUNTER AAF LGT RAIN 97 75 49 W9 29.97F HX 109 FORT STEWART PTSUNNY 95 72 46 W6 29.97F HX 102 STATESBORO MOSUNNY 91 70 49 CALM 30.00F HX 97 SYLVANIA PTCLDY 96 78 56 NW5 30.00F HX 113 CLAXTON MOCLDY 95 76 52 W3 29.99F HX 107 ...CSRA...CENTRAL AND FAR SOUTHEAST GEORGIA... CITY SKY/WX TMP DP RH WIND PRES REMARKS THOMSON MOSUNNY 95 72 47 N6 30.05F HX 103 AUGUSTA-BUSH MOSUNNY 98 73 44 W9 29.98F HX 108 AUGUSTA-DANIEL MOSUNNY 97 70 41 MISG 30.01F HX 103 SWAINSBORO MOCLDY 95 73 49 CALM 30.01F HX 105 VIDALIA MOSUNNY 95 73 49 W7 30.00F HX 105 EASTMAN FAIR 95 58 28 NW3 30.04F HX 94 HAZLEHURST FAIR 96 50 21 N5 30.00F HX 92 ALMA SUNNY 93 71 48 W5 30.02F HX 100 WAYCROSS MOSUNNY 94 69 43 N6 30.01F HX 100 JESUP NOT AVBL BAXLEY FAIR 90 72 55 CALM 30.00F HX 96 BRUNSWICK MOSUNNY 95 70 43 SW5 30.00F HX 101 SAINT SIMONS MOSUNNY 94 73 50 VRB5 30.00F HX 103 $$ SCZ027-028-034-036>038-045-046-048>050-GAZ119-141-162100- ...LAKE AND SUPPLEMENTAL COASTAL OBSERVATIONS... STATION/POSITION TIME TEMP WIND PRES WAVE SWELL AIR SEA DIR/SP/G HT/PER HT/PER/DIR (UTC) (F) (DEG/KT/KT) (MB) (FT/S) (FT/S/D) WINYAH BAY 1945 86 150/ 10 1015.0F LAKE MURRAY 2020 91 200/ 8/ 10 1014.2 ACE BASIN NERRS 1945 94 270/ 2 1015.0F FORT PULASKI 2000 88 86 200/ 7/ 12 1016.0 SAPELO ISLAND 2000 96 CALM 1016.0 $$ ANZ835-935-AMZ111-154-330-350-352-354-370-450-454-472-162100- ...C-MAN AND BUOY OBSERVATIONS... STATION/POSITION TIME TEMP WIND PRES WAVE SWELL AIR SEA DIR/SP/G HT/PER HT/PER/DIR (UTC) (F) (DEG/KT/KT) (MB) (FT/S) (FT/S/D) BUOY 41004 2010 84 84 220/ 10/ 12 1015.3 BUOY 41008 1950 85 86 180/ 8/ 10 1015.9F 1/ 9 2/ 40/ 9 FOLLY BEACH CMAN 2000 87 200/ 13/ 15 1016.1F CAPERS NEARSHORE 2008 85 86 210/ 14/ 17 1014.8F FRIPP NEARSHORE 2008 86 210/ 12/ 16 1015.1F STATION/POSITION TIME TEMP WIND PRES WAVE SWELL AIR SEA DIR/SP/G HT/PER HT/PER/DIR (UTC) (F) (DEG/KT/KT) (MB) (FT/S) (FT/S/D) 5E ST. MARYS GA 2000 86 N/A 1/ 8 FRYING PAN BUOY 2010 84 84 140/ 2/ 4 1015.3 BUOY 41025 1950 80 84 360/ 14/ 16 1014.6F 2/ 7 2/120/ 7 CAPE LOOKOUT NC 2000 78 80/ 3/ 4 1015.5R BUOY 41002 1950 84 84 230/ 12/ 16 1015.8F 4/ 6 2/ 80/ 8 BUOY 41010 2010 86 87 280/ 2/ 4 1017.2 ST AUGUSTINE FL 2000 85 84 120/ 9/ 11 1017.3R $$

USA.gov is the U.S. government's official web portal to all federal, state and local government web resources and services.